GW5207 Weather Reports


Display with metric or nautical units.
time (UTC)temp
F
wind
direction
speed
MPH
gust
MPH
rain 1hr
in
rain 24hr
in
rain mn
in
humidity
%
barometer
mb
20260507060038 49 213 0.0 2.0 0.00 0.15 0.00 93 1007.2
20260507054526 49 213 0.0 1.0 0.00 0.15 0.00 93 1007.8
20260507053026 49 190 0.0 0.0 0.00 0.15 0.00 93 1007.4
20260507051525 49 190 0.0 2.0 0.00 0.15 0.00 93 1007.7
20260507050032 49 171 0.0 1.0 0.00 0.15 0.00 93 1007.6
20260507044530 49 171 0.0 1.0 0.00 0.15 0.00 92 1007.3
20260507043020 50 171 0.0 4.0 0.00 0.15 0.00 93 1007.4
20260507041526 50 227 0.0 4.0 0.00 0.15 0.00 93 1007.5
20260507040025 51 161 0.0 2.0 0.00 0.15 0.00 93 1007.3
20260507034534 52 105 1.0 4.0 0.02 0.15 0.15 94 1007.0
20260507033030 53 275 0.0 2.0 0.02 0.15 0.15 94 1006.9
20260507031529 53 269 0.0 4.0 0.02 0.15 0.15 94 1006.8
20260507030022 54 137 0.0 3.0 0.02 0.15 0.15 94 1006.4
20260507024525 55 215 0.0 3.0 0.00 0.13 0.13 95 1006.8
20260507023026 56 231 0.0 4.0 0.00 0.13 0.13 95 1006.6
20260507021526 57 172 0.0 3.0 0.00 0.13 0.13 96 1006.1
20260507020028 58 316 0.0 0.0 0.00 0.13 0.13 97 1006.1
20260507014525 58 316 0.0 0.0 0.00 0.13 0.13 97 1005.8
20260507013043 58 316 0.0 0.0 0.00 0.13 0.13 97 1005.8
20260507011526 58 316 0.0 0.0 0.00 0.13 0.13 97 1005.8
20260507010034 58 316 0.0 0.0 0.00 0.13 0.13 97 1005.7
20260507004526 58 316 0.0 0.0 0.00 0.13 0.13 96 1005.7
20260507003025 58 316 0.0 0.0 0.00 0.13 0.13 96 1005.4
20260507001530 58 315 0.0 0.0 0.00 0.13 0.13 96 1005.4
20260507000028 58 336 0.0 1.0 0.00 0.13 0.13 96 1005.3
20260506234527 58 336 0.0 2.0 0.00 0.13 0.13 96 1005.1
20260506233036 58 117 0.0 1.0 0.00 0.13 0.13 96 1005.1
20260506231528 58 117 0.0 3.0 0.00 0.13 0.13 96 1005.1
20260506230010 58 280 0.0 2.0 0.00 0.13 0.13 96 1005.2
20260506224523 58 280 0.0 2.0 0.00 0.13 0.13 96 1005.4
20260506223022 58 280 0.0 1.0 0.01 0.13 0.13 96 1005.3
20260506221526 59 280 0.0 2.0 0.02 0.13 0.13 95 1005.5
20260506220028 59 290 0.0 2.0 0.02 0.13 0.13 95 1005.6
20260506214527 59 288 0.0 3.0 0.03 0.13 0.13 95 1005.5
20260506213027 59 302 0.0 3.0 0.02 0.12 0.12 95 1005.6
20260506211527 59 360 0.0 3.0 0.02 0.11 0.11 95 1005.7
20260506210033 59 263 1.0 4.0 0.02 0.11 0.11 95 1005.7
20260506204510 60 327 0.0 4.0 0.02 0.10 0.10 94 1005.8
20260506203023 60 290 0.0 2.0 0.03 0.10 0.10 94 1005.9
20260506201533 61 288 1.0 3.0 0.02 0.09 0.09 94 1006.0
20260506200039 60 298 1.0 4.0 0.02 0.09 0.09 93 1006.1
20260506194528 61 331 0.0 2.0 0.01 0.08 0.08 94 1006.3
20260506193028 61 45 0.0 2.0 0.01 0.07 0.07 93 1006.4
20260506191527 61 46 0.0 0.0 0.02 0.07 0.07 93 1006.0
20260506190023 61 46 0.0 1.0 0.04 0.07 0.07 93 1006.1
20260506184526 61 46 0.0 0.0 0.06 0.07 0.07 92 1006.5
20260506183033 61 46 0.0 1.0 0.06 0.06 0.06 91 1007.0
20260506181526 62 50 0.0 2.0 0.05 0.05 0.05 89 1007.2
20260506180030 64 343 0.0 1.0 0.03 0.03 0.03 84 1007.4
20260506174527 66 338 0.0 2.0 0.01 0.01 0.01 76 1007.5
20260506173023 68 259 0.0 3.0 0.00 0.00 0.00 71 1007.4
20260506171519 69 264 0.0 8.0 0.00 0.00 0.00 66 1007.1
20260506170027 69 227 2.0 5.0 0.00 0.00 0.00 67 1007.2
20260506164525 69 291 0.0 3.0 0.00 0.00 0.00 69 1007.2
20260506163025 69 325 0.0 5.0 0.00 0.00 0.00 69 1007.4
20260506161511 69 290 1.0 5.0 0.00 0.00 0.00 68 1007.5
20260506160021 69 258 1.0 3.0 0.00 0.00 0.00 70 1007.9
20260506154530 68 98 1.0 3.0 0.00 0.00 0.00 71 1008.3
20260506153023 68 283 0.0 4.0 0.00 0.00 0.00 71 1008.5
20260506151528 68 294 0.0 4.0 0.00 0.00 0.00 70 1008.8
20260506150024 68 294 1.0 3.0 0.00 0.00 0.00 70 1008.8
20260506144517 68 242 1.0 6.0 0.00 0.00 0.00 71 1008.7
20260506143034 68 185 1.0 6.0 0.00 0.00 0.00 71 1008.8
20260506141528 66 295 0.0 4.0 0.00 0.00 0.00 74 1008.6
20260506140020 65 76 0.0 3.0 0.00 0.00 0.00 77 1008.4
20260506134528 64 65 0.0 3.0 0.00 0.00 0.00 79 1008.7
20260506133025 63 20 0.0 3.0 0.00 0.00 0.00 79 1008.8
20260506131530 63 25 0.0 2.0 0.00 0.00 0.00 80 1009.0
20260506130026 62 352 0.0 2.0 0.00 0.00 0.00 81 1009.0
20260506124527 62 266 0.0 2.0 0.00 0.00 0.00 81 1009.0
20260506123039 61 305 0.0 0.0 0.00 0.00 0.00 82 1009.1
20260506121521 60 305 0.0 0.0 0.00 0.00 0.00 83 1009.0
20260506120036 60 305 0.0 0.0 0.00 0.00 0.00 84 1009.3
20260506114527 59 305 0.0 2.0 0.00 0.00 0.00 85 1009.3
20260506113026 58 304 0.0 2.0 0.00 0.00 0.00 86 1009.5
20260506111526 57 304 0.0 2.0 0.00 0.00 0.00 87 1009.6
20260506110028 56 305 0.0 1.0 0.00 0.00 0.00 88 1009.5
20260506104529 55 305 0.0 1.0 0.00 0.00 0.00 88 1009.5
20260506103030 55 305 0.0 2.0 0.00 0.00 0.00 88 1009.6
20260506101521 55 123 0.0 0.0 0.00 0.00 0.00 88 1009.4
20260506100029 55 123 0.0 0.0 0.00 0.00 0.00 87 1009.5
20260506094533 55 123 0.0 0.0 0.00 0.00 0.00 87 1009.5
20260506093041 55 123 0.0 0.0 0.00 0.00 0.00 86 1009.4
20260506091526 55 123 0.0 0.0 0.00 0.00 0.00 86 1009.5
20260506090028 55 123 0.0 0.0 0.00 0.00 0.00 85 1009.3
20260506084526 55 123 0.0 0.0 0.00 0.00 0.00 84 1009.5
20260506083026 55 123 0.0 0.0 0.00 0.00 0.00 83 1009.4
20260506081523 56 123 0.0 0.0 0.00 0.00 0.00 82 1009.3
20260506073026 58 123 0.0 0.0 0.00 0.00 0.00 79 1009.2
20260506071530 58 123 0.0 0.0 0.00 0.00 0.00 77 1009.0
20260506061534 60 123 0.0 0.0 0.00 0.00 0.00 73 1008.8